IRIDIUM 163

Last updated on Fri Sep 11 2026 00:03:06 GMT+0000 (Coordinated Universal Time)

1 43575U 18061G 26253.60924025 .00000163 00000+0 51135-4 0 9994 2 43575 86.3997 20.9916 0002192 94.3036 265.8410 14.34217605425622
UTC large
Height (km)
Speed (km/s)
/
Latitude / Longitude
Inclination (degrees)
Orbital Period (minutes)
Azimuth
Elevation
Range (km)
Doppler Factor

Next 0 passes for location: London (51.5072 / 0.1276)

No passes found over London.
IRIDIUM 163